User: anonymous   Login
Location: Unspecified
(0.0000°N, 0.0000°E)
Time: 02:12:19
(UTC+00:00)
Language:

Vanguard 1 - Orbit

View from above orbital plane
View from above orbital plane
View from above satellite
View from above satellite

Ground track
Ground track

The orbit data is extracted from the following two-line orbital elements,

1     5U 58002B   19145.69574592 -.00000083  00000-0 -82071-4 0  9992
2     5  34.2466 345.6970 1842778  43.0704 330.0222 10.84764793163136
Epoch (UTC): 25 May 2019 16:41:52
Eccentricity: 0.1842778
inclination: 34.2466°
perigee height: 653 km
apogee height: 3830 km
right ascension of ascending node: 345.6970°
argument of perigee: 43.0704°
revolutions per day: 10.84764793
mean anomaly at epoch: 330.0222°
orbit number at epoch: 16313

The dashed part of the orbit path shows where the satellite is in the earth's shadow,  

DLR